This demonstration page uses our WeatherBlox Daily Observations layout. Learn more.

Left ArrowRight Arrow

Hourly Observations for July 20, 2021

Temp ( °F °C ) Dew Point ( °F °C ) Humidity (%) Winds ( mph kmh ) Pressure ( in mb ) Visibility ( mi km ) Precip ( " mm )
12:56 am 00:56 Clear 65 18.3 61 16.1 87 87 Calm 30.18 1022 10 16 0.00 0.00
1:56 am 01:56 Clear 63 17.2 59 15 87 87 Calm 30.18 1022 9 14 0.00 0.00
2:56 am 02:56 Clear 61 16.1 59 15 93 93 Calm 30.18 1022 7 11 0.00 0.00
3:56 am 03:56 Clear 62 16.7 59 15 90 90 Calm 30.19 1022 7 11 0.00 0.00
4:56 am 04:56 Clear with Mist and Fog 61 16.1 59 15 93 93 Calm 30.19 1022 6 10 0.00 0.00
5:56 am 05:56 Clear 58 14.4 56 13.3 93 93 Calm 30.19 1022 8 13 0.00 0.00
6:56 am 06:56 Sunny with Mist and Fog 60 15.6 58 14.4 93 93 Calm 30.20 1023 5 8 0.00 0.00
7:56 am 07:56 Sunny with Mist and Fog 62 16.7 59 15 90 90 NW 3 6 30.20 1023 4 6 0.00 0.00
8:56 am 08:56 Sunny with Mist and Fog 67 19.4 64 17.8 91 91 SE 5 7 30.20 1023 4 6 0.00 0.00
9:56 am 09:56 Sunny 71 21.7 66 18.9 84 84 S 5 7 30.21 1023 9 14 0.00 0.00
10:56 am 10:56 Mostly Sunny 75 23.9 67 19.4 76 76 S 5 7 30.20 1023 10 16 0.00 0.00
11:56 am 11:56 Mostly Sunny 77 25 66 18.9 69 69 ESE 9 15 30.19 1023 10 16 0.00 0.00
12:56 pm 12:56 Sunny 78 25.6 64 17.8 62 62 SE 7 11 30.17 1022 10 16 0.00 0.00
1:56 pm 13:56 Partly Cloudy 79 26.1 64 17.8 60 60 SSE 8 13 30.16 1021 10 16 0.00 0.00
2:56 pm 14:56 Partly Cloudy 80 26.7 63 17.2 56 56 S 12 19 30.14 1021 10 16 0.00 0.00
3:56 pm 15:56 Mostly Sunny 80 26.7 62 16.7 54 54 SSE 8 13 30.13 1020 10 16 0.00 0.00
4:56 pm 16:56 Partly Cloudy 81 27.2 62 16.7 53 53 S 10 17 30.11 1020 10 16 0.00 0.00
5:56 pm 17:56 Mostly Sunny 80 26.7 65 18.3 60 60 ESE 9 15 30.10 1019 10 16 0.00 0.00
6:56 pm 18:56 Mostly Sunny 79 26.1 64 17.8 60 60 S 7 11 30.09 1019 10 16 0.00 0.00
7:56 pm 19:56 Sunny 76 24.4 67 19.4 74 74 SE 6 9 30.08 1019 10 16 0.00 0.00
8:56 pm 20:56 Sunny 71 21.7 65 18.3 81 81 SE 7 11 30.07 1018 10 16 0.00 0.00
9:56 pm 21:56 Clear 69 20.6 64 17.8 84 84 ESE 7 11 30.08 1019 10 16 0.00 0.00
10:56 pm 22:56 Clear 67 19.4 64 17.8 91 91 SE 6 9 30.09 1019 10 16 0.00 0.00
11:56 pm 23:56 Clear 66 18.9 63 17.2 90 90 SE 6 9 30.09 1019 10 16 0.00 0.00

Powered by AerisWeather